User: anonymous   Login
Location: Campo Alegre
(10.4289°N, 66.6519°W)
Time: 11:05:07
(UTC+00:00)
Language:

USA 290 - Orbit

View from above orbital plane
View from above orbital plane
View from above satellite
View from above satellite

Ground track
Ground track

The orbit data is extracted from the following two-line orbital elements,

1 43941U 19004A   24200.93298787 0.00018502  00000-0  28385-3 0    04
2 43941  73.5683 251.8970 0016710  81.8119 278.9643 15.54006966    01
Epoch (UTC): 18 July 2024 22:23:30
Eccentricity: 0.0016710
inclination: 73.5683°
perigee height: 394 km
apogee height: 416 km
right ascension of ascending node: 251.8970°
argument of perigee: 81.8119°
revolutions per day: 15.54006966
mean anomaly at epoch: 278.9643°
orbit number at epoch: 0

The dashed part of the orbit path shows where the satellite is in the earth's shadow,  

DLR